Regional Weather Roundup
Issued by NWS

Home | Current Version | Previous Version | Text Only | Print | Product List | Glossary Off
Versions: 1 2 3 4 5 6 7 8 9 10 11 12 13 14 15 16 17 18 19 20 21 22 23 24 25 26 27 28 29 30 31 32 33 34 35 36 37 38 39 40 41 42 43 44 45 46 47 48 49 50

000
ASUS43 KOAX 200110
RWRNE

WEATHER ROUNDUP FOR NEBRASKA
NATIONAL WEATHER SERVICE OMAHA NE
700 PM CST THU JAN 19 2017

NOTES: SATELLITE DATA IS BEING USED TO AUGMENT CLOUD COVER ABOVE
       12000 FEET.
       "FAIR" INDICATES FEW OR NO CLOUDS BELOW 12,000 FEET WITH NO
       SIGNIFICANT WEATHER AND/OR OBSTRUCTIONS TO VISIBILITY.

  * THESE STATIONS DO NOT REPORT WEATHER SUCH AS RAIN...SNOW OR FOG.

NEZ001>004-019>022-054>056-200200-
NEBRASKA PANHANDLE

CITY           SKY/WX    TMP DP  RH WIND       PRES   REMARKS
SCOTTSBLUFF    CLEAR     40  25  55 W7        29.51R
ALLIANCE       CLOUDY    37  25  61 W3        29.49R
CHADRON        CLOUDY    32  25  75 W3        29.49S
KIMBALL        CLEAR     41  28  60 NW12      29.53S
SIDNEY         CLEAR     32  24  72 SW12      29.52R WCI  23
$$

NEZ057>060-069>072-079>082-200200-
SOUTHWEST NEBRASKA

CITY           SKY/WX    TMP DP  RH WIND       PRES   REMARKS
NORTH PLATTE   CLOUDY    38  36  92 S9        29.55S WCI  31
IMPERIAL       FOG       34  34 100 SE10      29.54S VSB 1/4 WCI  26
LEXINGTON      CLOUDY    39  37  94 S6        29.56F FOG     WCI  35
MCCOOK         PTCLDY    36  35  96 CALM      29.55F FOG
OGALLALA       MOCLDY    35  33  93 SE3       29.52S FOG
$$

NEZ005>010-023>029-035>040-094-200200-
NORTH CENTRAL NEBRASKA

CITY           SKY/WX    TMP DP  RH WIND       PRES   REMARKS
VALENTINE      CLEAR     38  31  76 S10       29.48S WCI  31
AINSWORTH      CLOUDY    37  37  99 S14       29.50S WCI  28
BROKEN BOW     CLOUDY    40  38  93 S8        29.55S WCI  34
O`NEILL        CLOUDY    41  40  98 S9        29.55F FOG
ORD            CLOUDY    40  38  93 S8        29.56F WCI  34
THEDFORD       CLOUDY    37  36  96 S5        29.53S FOG     WCI  33
$$

NEZ041-046>049-061>064-073>077-083>087-200200-
SOUTH CENTRAL NEBRASKA

CITY           SKY/WX    TMP DP  RH WIND       PRES   REMARKS
GRAND ISLAND   CLOUDY    39  39 100 S5        29.61F FOG
AURORA         FOG       38  38 100 SE3       29.62S VSB 1/2
HASTINGS       FOG       40  39  97 SE5       29.62S VSB 1/2
HEBRON         FOG       41  41  99 CALM      29.64R VSB 3/4
HOLDREGE       CLOUDY    39  38  97 SE5       29.58S FOG
KEARNEY *      CLOUDY    39  36  87 SE7       29.58F WCI  34
YORK           FOG       39  39 100 CALM      29.64S VSB 1/2
$$

NEZ011>018-030>034-042>045-200200-
NORTHEAST NEBRASKA

CITY           SKY/WX    TMP DP  RH WIND       PRES   REMARKS
NORFOLK        CLOUDY    39  37  92 SE8       29.61F FOG     WCI  33
ALBION         CLOUDY   N/A N/A N/A SE7       29.60F FOG
BLAIR          FOG       41  40  98 CALM      29.66R VSB 1/4
FREMONT        FOG       40  40 100 CALM      29.67S VSB 1/2
TEKAMAH        FOG       38  37  97 CALM      29.67S VSB 1/4
WAYNE          CLOUDY    38  38  99 SE8       29.64S FOG     WCI  32
$$

NEZ050>053-065>068-078-088>093-200200-
SOUTHEAST NEBRASKA

CITY           SKY/WX    TMP DP  RH WIND       PRES   REMARKS
LINCOLN        FOG       41  41 100 CALM      29.66R VSB 1/2
OMAHA EPPLEY   FOG       42  38  85 CALM      29.66S VSB 1/2
BEATRICE       FOG       41  41 100 CALM      29.64S VSB 3/4
FALLS CITY     FOG       43  42  97 CALM      29.65R VSB 1/4
NEBRASKA CITY  FOG       41  41 100 CALM      29.65F VSB 1/4
PLATTSMOUTH    FOG       41  39  93 CALM      29.65S VSB 1/4
$$

NEZ044-045-051>053-067-200200-
OMAHA AREA

CITY           SKY/WX    TMP DP  RH WIND       PRES   REMARKS
OMAHA EPPLEY   FOG       42  38  85 CALM      29.66S VSB 1/2
BLAIR          FOG       41  40  98 CALM      29.66R VSB 1/4
FREMONT        FOG       40  40 100 CALM      29.67S VSB 1/2
MILLARD        DRZL/FOG  43  42  97 CALM      29.66S VSB 1/4
OFFUTT AFB     DRZL/FOG  40  40 100 CALM      29.66S VSB 3/8
PLATTSMOUTH    FOG       41  39  93 CALM      29.65S VSB 1/4
WAHOO          FOG       37  36  96 CALM      29.66R VSB 1/2
$$




USA.gov is the U.S. government's official web portal to all federal, state and local government web resources and services.